Flag for Poland Weather past 2 weeks in Dąbrowa Górnicza, Poland

Now
61 °F

Light rain. Passing clouds.


Feels Like: 61 °F
Forecast: 55 / 64 °F
Wind: No wind

Location: Katowice Airport

Current Time: Sep 30, 2014 at 10:03:32 PM

Latest Report: Sep 30, 2014 at 9:30 PM


Visibility: 4 mi

Pressure: 30.27 "Hg

Humidity: 88%

Dew point: 57 °F

Location of Dąbrowa GórniczaLocation

Historic Weather in Dąbrowa Górnicza — Graph

°F

Dąbrowa Górnicza temperature yesterday

Maximum temperature yesterday: 68 °F (at 1:30 PM)
Minimum temperature yesterday: 45 °F (at 12:00 AM)
Average temperature yesterday: 58 °F

Past Weeks' High & Low Weather Summary

 TemperatureHumidityPressure
High73 °F (Sep 19, 3:00 PM)100% (Sep 18, 5:30 AM)30.42 "Hg (Sep 18, 5:30 AM)
Low32 °F (Sep 24, 5:30 AM)38% (Sep 19, 1:00 PM)29.71 "Hg (Sep 22, 3:30 AM)
Average56 °F81%30.08 "Hg
* Reported Sep 15 9:00 PM — Sep 30 9:00 PM, Dąbrowa Górnicza, Weather by CustomWeather, © 2014

Note: Actual official high and low records may vary slightly from our data, if they occured in-between our weather recording intervals... More about our weather records

Advertising

Dąbrowa Górnicza weather history for previous 24 hours

 ConditionsComfort  
Time TempWeatherWind HumidityBarometerVisibility
9:00 PM
Sep 30
61 °FLight rain. Clear.No wind94%30.24 "Hg4 mi
8:30 PM63 °FClear.1 mph83%30.24 "Hg4 mi
8:00 PM63 °FClear.No wind83%30.24 "Hg4 mi
7:30 PM64 °FClear.2 mph78%30.24 "Hg4 mi
7:00 PM64 °FClear.3 mph78%30.24 "Hg4 mi
6:30 PM64 °FClear.2 mph83%30.24 "Hg4 mi
6:00 PM66 °FSunny.6 mph73%30.24 "Hg10 mi
5:30 PM66 °FSunny.7 mph73%30.24 "Hg10 mi
5:00 PM66 °FSunny.8 mph78%30.24 "Hg10 mi
4:30 PM68 °FSunny.8 mph69%30.24 "Hg10 mi
4:00 PM68 °FSunny.7 mph69%30.24 "Hg10 mi
3:30 PM68 °FSunny.7 mph69%30.24 "Hg10 mi
3:00 PM70 °FPassing clouds.7 mph64%30.24 "HgN/A
2:30 PM70 °FSunny.9 mph64%30.24 "Hg10 mi
2:00 PM68 °FSunny.8 mph64%30.24 "Hg10 mi
1:30 PM68 °FSunny.7 mph69%30.24 "Hg10 mi
1:00 PM66 °FSunny.8 mph68%30.24 "Hg10 mi
12:30 PM66 °FPassing clouds.8 mph68%30.24 "HgN/A
12:00 PM66 °FPassing clouds.5 mph68%30.24 "HgN/A
11:30 AM66 °FPassing clouds.7 mph68%30.24 "HgN/A
11:00 AM64 °FSunny.6 mph73%30.24 "Hg10 mi
10:30 AM61 °FClear.7 mph77%30.27 "Hg5 mi
10:00 AM59 °FClear.7 mph82%30.27 "Hg5 mi
9:30 AM59 °FClear.7 mph82%30.27 "Hg5 mi
9:00 AM57 °FClear.7 mph82%30.24 "Hg5 mi
8:30 AM55 °FClear.7 mph88%30.24 "Hg5 mi
8:00 AM55 °FClear.8 mph88%30.24 "Hg4 mi
7:30 AM54 °FClear.8 mph88%30.24 "Hg4 mi
7:00 AM54 °FClear.6 mph94%30.24 "Hg4 mi
6:30 AM54 °FClear.6 mph88%30.24 "Hg4 mi
6:00 AM54 °FClear.5 mph94%30.24 "Hg4 mi
5:30 AM55 °FClear.6 mph88%30.24 "Hg4 mi
5:00 AM55 °FClear.6 mph88%30.24 "Hg4 mi
4:30 AM55 °FClear.5 mph88%30.24 "Hg4 mi
4:00 AM55 °FClear.6 mph88%30.24 "Hg4 mi
3:30 AM55 °FClear.6 mph88%30.24 "Hg10 mi
3:00 AM55 °FClear.6 mph88%30.24 "Hg10 mi
2:30 AM55 °FClear.6 mph88%30.24 "Hg10 mi
2:00 AM55 °FClear.6 mph88%30.24 "Hg10 mi
1:30 AM55 °FClear.7 mph94%30.27 "Hg10 mi
1:00 AM57 °FClear.7 mph88%30.27 "Hg10 mi
12:30 AM57 °FClear.8 mph88%30.27 "Hg10 mi
12:00 AM57 °FClear.9 mph88%30.27 "Hg10 mi
11:30 PM
Sep 29
57 °FClear.8 mph88%30.27 "Hg10 mi
11:00 PM57 °FClear.6 mph88%30.27 "Hg10 mi
10:30 PM57 °FClear.6 mph88%30.27 "Hg10 mi
10:00 PM57 °FClear.7 mph88%30.27 "Hg10 mi
Weather by CustomWeather, © 2014

See weather overviewHow to use our weather pages